Weather History for KPBG - January, 2014

Change the Weather History Date:

Thursday, January 30, 2014

  Actual Average Record
Temperature  
Mean Temperature 16 °F 17 °F  
Max Temperature 24 °F 27 °F - ()
Min Temperature 7 °F 6 °F - ()
Degree Days  
Heating Degree Days 49 48  
Month to date heating degree days 1458 1443  
Since 1 July heating degree days 4510 4329  
Cooling Degree Days 0 0  
Month to date cooling degree days 0  
Year to date cooling degree days 0  
Moisture  
Dew Point 5 °F    
Average Humidity 60    
Maximum Humidity 80    
Minimum Humidity 40    
Precipitation  
Precipitation T in - - ()
Month to date precipitation 0.64  
Year to date precipitation 0.64  
Sea Level Pressure  
Sea Level Pressure 30.19 in    
Wind  
Wind Speed 10 mph (SSE)    
Max Wind Speed 23 mph    
Max Gust Speed 30 mph    
Visibility 10 miles    
Events      
T = Trace of Precipitation, MM = Missing Value Source: NWS Daily Summary

Daily Weather History Graph

Daily Weather History Graph

Search for Another Location

Airport or City:

Trip Planner

Search our weather history database for the weather conditions in past years. The results will help you decide how hot, cold, wet, or windy it might be!

Date:

Astronomy

Jan. 30, 2014 Rise Set
Actual Time 7:15 AM EST 4:59 PM EST
Civil Twilight 6:43 AM EST 5:31 PM EST
Nautical Twilight 6:08 AM EST 6:06 PM EST
Astronomical Twilight 5:34 AM EST 6:40 PM EST
Moon 6:37 AM EST (1/30) 5:10 PM EST (1/30)
Length of Visible Light 10h 47m
Length of Day
9h 44m
Waning Crescent, 0% of the Moon is Illuminated
Jan 30
Waning Crescent
Jan 30
New
Feb 6
First Quarter
Feb 14
Full
Feb 22
Last Quarter

Hourly Weather History & Observations

Time (EST) Temp. Windchill Dew Point Humidity Pressure Visibility Wind Dir Wind Speed Gust Speed Precip Events Conditions
12:53 AM 12.9 °F 6.9 °F 3.0 °F 65% 30.19 in 10.0 mi SSE 3.5 mph - N/A   Overcast
1:53 AM 14.0 °F - 3.0 °F 62% 30.21 in 10.0 mi Calm Calm - N/A   Mostly Cloudy
2:53 AM 12.0 °F - 3.0 °F 67% 30.23 in 10.0 mi Calm Calm - N/A   Clear
3:53 AM 9.0 °F 0.6 °F 3.0 °F 77% 30.25 in 10.0 mi SE 4.6 mph - N/A   Clear
4:53 AM 12.0 °F 4.1 °F 3.0 °F 67% 30.27 in 10.0 mi SSW 4.6 mph - N/A   Clear
5:53 AM 10.9 °F - 3.0 °F 70% 30.27 in 10.0 mi Calm Calm - N/A   Clear
6:53 AM 12.0 °F 2.7 °F 6.1 °F 77% 30.30 in 10.0 mi SSE 5.8 mph - N/A   Clear
7:53 AM 12.9 °F 1.6 °F 7.0 °F 77% 30.32 in 10.0 mi SSE 8.1 mph - N/A   Clear
8:53 AM 15.1 °F 5.2 °F 5.0 °F 64% 30.34 in 10.0 mi SSE 6.9 mph - 0.00 in   Scattered Clouds
9:53 AM 17.1 °F 2.5 °F 6.1 °F 62% 30.33 in 10.0 mi SSE 15.0 mph - N/A   Clear
10:53 AM 18.0 °F 2.6 °F 8.1 °F 65% 30.31 in 10.0 mi SSE 17.3 mph - N/A   Clear
11:53 AM 19.0 °F 4.0 °F 8.1 °F 62% 30.29 in 10.0 mi SSE 17.3 mph - N/A   Clear
12:53 PM 21.0 °F 7.6 °F 8.1 °F 57% 30.25 in 10.0 mi SSE 15.0 mph 24.2 mph N/A   Clear
1:53 PM 24.1 °F 11.0 °F 8.1 °F 51% 30.20 in 10.0 mi South 16.1 mph 26.5 mph N/A   Clear
2:53 PM 24.1 °F 11.5 °F 6.1 °F 46% 30.19 in 10.0 mi South 15.0 mph 23.0 mph N/A   Clear
3:53 PM 23.0 °F 8.7 °F 6.1 °F 48% 30.17 in 10.0 mi SSE 18.4 mph - N/A   Clear
4:53 PM 21.9 °F 9.8 °F 3.9 °F 46% 30.16 in 10.0 mi South 12.7 mph 19.6 mph N/A   Clear
5:53 PM 21.0 °F 8.6 °F 3.9 °F 48% 30.13 in 10.0 mi South 12.7 mph - N/A   Clear
6:53 PM 21.0 °F 9.3 °F 3.9 °F 48% 30.10 in 10.0 mi South 11.5 mph - N/A   Clear
7:53 PM 21.9 °F 12.5 °F 3.9 °F 46% 30.07 in 10.0 mi South 8.1 mph - N/A   Clear
8:53 PM 24.1 °F 12.5 °F 3.0 °F 40% 30.04 in 10.0 mi South 12.7 mph - N/A   Clear
9:53 PM 24.1 °F 10.6 °F 3.9 °F 42% 29.99 in 10.0 mi South 17.3 mph 28.8 mph N/A   Clear
10:53 PM 21.9 °F 8.2 °F 6.1 °F 51% 29.96 in 10.0 mi SSE 16.1 mph - N/A   Clear
11:53 PM 23.0 °F 12.4 °F 6.1 °F 48% 29.95 in 10.0 mi South 10.4 mph 19.6 mph N/A   Partly Cloudy